Retour au catalogue

STARLINK-37659

ActifCommunicationsSSO
NORAD 69139·PAYLOAD·🇺🇸 United States

Lancé May 20, 2026 depuis Vandenberg Space Force Base

Loading…

Prochains Passages (prochaines 24 heures)

TLE

FraisSource: CelesTrak SupGP

Époque: Sep 15, 2026, 02:54 UTC

1 69139C 26110R   26258.12131944 -.00040025  00000+0 -12425-2 0  2582
2 69139  97.2849  93.2782 0001576  92.1503 260.9062 15.33457717    18

Suivez STARLINK-37659 en temps réel avec AllMySat

Download on the App Store